Theta_e
279 280 279 280 278 278 277 277 277 276 277 277 274 274 276 275 271 268 274 275 274 276 279 281 281 281 281 280 281 281 282 282 282 281 281 280 280 281 281 280 280 279 278 278 277 277 277 278 277 277 278 277 274 273 272 272 272 271 271 271 271 270 270 270 271 272 273 274 275 276 276 277 278 278 278 278 279 279 281 284 288 290 291 290 289 288 288
278 279 279 279 277 277 277 277 277 277 277 276 276 276 276 275 274 275 275 275 275 278 279 281 281 282 282 281 282 282 281 281 281 281 280 280 280 280 280 279 279 278 278 278 277 277 276 275 274 273 274 274 273 272 272 271 271 271 271 270 270 270 270 270 271 272 272 273 273 274 275 276 277 277 278 278 278 278 279 282 284 286 289 289 289 288 288
275 277 278 278 277 276 275 277 278 277 277 276 277 276 277 277 275 276 276 275 274 279 282 282 283 283 282 282 281 280 281 281 280 280 279 279 280 280 279 279 278 278 277 277 277 276 275 274 274 274 275 274 274 271 271 271 271 271 271 270 270 270 269 270 271 271 271 271 272 272 274 275 276 276 277 277 278 278 279 280 281 282 285 287 288 288 288
273 277 277 277 277 277 276 275 276 276 275 274 275 275 277 275 273 275 275 273 274 279 282 282 282 281 281 279 280 280 280 281 280 279 279 279 279 278 278 278 277 277 276 276 275 275 274 274 273 272 272 272 271 270 270 270 270 271 270 270 269 269 270 270 270 270 270 271 271 272 273 274 275 277 277 277 277 277 278 279 280 282 284 286 287 288 288
272 275 277 274 274 273 270 271 275 276 277 277 277 278 278 278 278 274 272 273 279 280 281 279 279 280 280 280 280 280 280 280 280 279 279 279 278 278 277 277 276 276 276 275 275 274 274 273 272 274 274 272 270 270 270 270 270 270 269 269 269 269 269 270 270 270 270 270 270 271 272 274 275 276 277 277 277 277 277 279 280 282 283 285 286 288 288
271 273 273 273 271 265 268 278 280 279 276 276 275 275 277 278 279 277 279 279 280 280 280 279 279 279 279 280 281 282 280 280 279 280 279 279 278 277 277 276 276 276 275 275 274 274 273 273 273 273 274 272 270 270 270 270 269 269 269 269 268 268 269 269 269 270 270 270 270 271 272 273 275 276 276 276 277 277 278 278 279 281 282 284 286 287 288
270 272 272 269 264 266 277 281 282 281 280 279 278 278 279 279 279 279 278 279 279 280 280 280 280 281 281 282 281 280 281 281 280 279 279 278 277 276 276 275 275 275 274 274 273 273 272 272 272 272 272 272 270 269 269 269 269 268 268 268 267 268 268 268 268 269 269 269 269 270 270 271 274 276 276 277 277 277 278 278 280 281 282 284 285 286 287
272 270 269 263 266 274 275 277 279 280 279 278 276 275 277 278 279 279 277 278 279 280 280 281 282 281 281 281 281 281 282 282 280 279 277 277 276 275 275 274 274 274 273 273 272 272 272 271 271 270 270 271 269 268 269 268 268 268 267 267 266 267 267 267 268 268 268 268 269 269 269 269 270 274 276 277 277 277 278 278 281 283 284 285 286 286 287
265 270 268 269 276 275 277 275 276 277 275 276 275 270 275 279 279 279 278 279 279 280 280 281 281 281 280 278 279 283 282 281 280 279 278 277 276 275 275 275 274 274 273 272 272 271 271 270 270 269 269 269 268 267 267 267 267 267 266 266 266 266 266 266 267 267 267 267 267 267 268 268 269 270 274 276 277 277 277 278 281 283 284 285 286 287 287
273 266 266 268 268 266 272 279 281 282 281 281 280 276 272 280 280 281 279 278 279 279 279 280 280 279 276 274 277 281 281 280 279 278 278 277 276 275 274 274 274 273 272 272 271 270 269 269 269 269 269 268 267 266 266 266 266 266 265 265 265 265 265 266 266 266 267 267 266 267 267 267 268 270 273 275 276 278 278 280 282 285 286 286 287 288 288
272 269 266 265 264 268 277 277 279 281 281 280 279 274 269 278 280 281 280 278 279 279 279 279 279 275 272 273 277 281 280 279 278 277 276 276 275 274 273 273 272 271 271 270 270 269 268 267 268 268 267 267 266 265 265 265 265 264 264 264 264 264 265 265 266 266 266 266 266 266 266 267 268 269 272 275 277 278 279 280 282 286 287 287 288 288 288
271 269 267 266 271 270 276 278 278 280 280 281 277 266 268 278 280 281 280 279 279 279 280 279 277 274 271 274 277 280 279 278 277 276 275 274 273 273 272 272 272 271 270 269 267 267 266 266 267 266 266 266 265 264 264 265 264 264 263 263 264 264 265 265 265 265 266 266 266 266 266 267 268 269 272 275 277 278 279 281 283 286 288 288 288 288 289
270 271 268 271 271 278 279 278 279 280 281 277 268 264 272 279 280 281 280 280 280 280 279 278 275 277 279 279 280 279 278 277 276 276 275 274 273 272 271 271 272 269 268 267 266 265 266 266 266 266 265 264 264 264 264 264 263 263 263 264 264 264 264 264 264 265 265 265 265 266 267 267 268 270 272 275 278 278 279 280 283 287 288 288 288 288 289
268 269 268 268 272 278 280 280 279 280 276 267 267 276 282 280 280 281 281 280 281 280 279 279 278 279 280 280 279 277 277 275 275 274 273 272 272 272 271 271 269 267 266 265 265 265 265 265 265 265 264 263 263 263 263 263 263 264 263 263 263 263 263 263 264 264 264 265 266 267 268 268 269 270 273 277 279 280 281 283 286 286 286 287 287 288 289
271 270 267 266 263 276 281 280 277 280 272 273 280 281 281 282 281 281 281 281 280 280 278 279 279 279 278 278 277 276 275 274 273 272 271 270 269 269 268 268 268 266 264 264 264 264 264 264 265 264 264 263 263 263 262 263 263 263 263 262 262 262 262 262 263 264 265 265 266 267 268 270 270 272 276 279 280 281 282 283 285 285 285 286 286 287 288
266 268 266 266 274 278 282 279 273 277 279 282 282 282 280 282 282 280 281 281 281 280 279 278 277 277 276 275 276 275 274 273 272 271 270 269 269 268 268 267 266 265 263 263 263 263 263 264 264 264 263 262 262 262 261 263 263 262 262 262 261 261 261 262 263 264 265 266 267 269 270 271 273 276 279 281 282 282 282 283 284 285 286 286 287 287 287
272 270 274 279 280 281 282 282 281 281 282 283 284 282 282 281 281 282 280 280 280 278 277 276 275 274 275 274 274 272 271 270 269 268 268 268 267 266 266 265 264 263 262 262 261 262 263 263 263 263 263 262 261 260 261 262 261 261 261 260 260 260 261 262 263 264 266 267 269 270 272 273 275 279 281 282 282 283 283 284 285 285 285 286 287 287 288
281 281 281 281 281 281 281 283 284 282 283 283 283 282 281 282 282 281 280 280 278 276 275 273 273 273 274 273 272 271 270 269 268 268 267 267 266 265 264 264 263 262 262 261 261 260 261 262 263 263 263 262 260 260 261 261 261 260 260 259 259 260 261 262 264 266 267 269 272 274 275 277 279 281 282 283 283 284 285 285 285 285 286 286 287 288 288
276 272 281 279 279 281 282 281 282 282 283 282 282 282 282 282 280 279 279 278 276 275 272 272 272 272 272 271 270 269 268 267 267 266 266 265 265 263 262 262 262 261 260 260 259 260 259 261 262 262 262 262 261 261 260 260 260 260 259 259 259 260 261 262 265 267 267 268 270 273 276 279 281 283 284 283 284 284 284 284 285 285 286 286 287 288 288
276 275 279 281 282 282 282 282 281 280 280 281 281 282 282 280 279 278 275 274 272 272 271 271 271 271 270 268 267 266 266 266 265 265 264 263 263 263 263 262 261 260 260 259 259 259 259 261 261 261 261 260 260 260 260 260 259 259 258 259 259 260 261 264 265 266 267 269 270 270 272 275 279 282 284 285 285 284 285 285 285 285 286 287 287 288 288
278 280 281 281 282 281 281 281 282 282 282 280 280 279 277 276 275 274 273 273 273 272 272 272 270 267 267 267 265 264 264 265 264 264 263 262 262 261 261 261 261 259 259 258 259 259 259 260 260 260 260 259 259 259 259 259 258 258 258 259 259 260 263 264 264 266 266 267 268 268 270 272 275 279 282 284 285 286 286 287 287 287 287 287 288 288 289
274 274 277 280 275 275 280 281 282 282 283 281 279 277 276 275 274 273 272 271 271 270 270 269 267 265 265 265 265 264 264 263 263 262 261 261 261 261 261 261 260 259 259 258 258 258 259 260 259 259 258 258 259 259 259 258 258 257 257 258 259 261 262 263 264 265 265 266 266 267 268 269 271 274 280 284 286 285 286 287 288 289 289 288 289 289 289
273 279 281 282 282 281 282 282 283 283 282 281 278 277 276 276 275 274 272 270 269 268 267 267 265 264 264 264 264 263 262 262 262 261 261 260 260 260 260 259 258 258 258 258 258 258 258 259 258 258 257 257 257 258 258 258 257 257 257 258 259 260 261 262 264 264 264 264 265 266 267 268 269 271 275 280 284 287 288 287 288 288 289 289 290 290 289
281 282 282 283 281 280 281 282 282 281 281 281 280 279 278 276 274 273 272 271 270 268 267 265 265 264 264 264 263 261 261 261 261 260 260 260 260 260 260 259 258 257 257 257 257 257 258 258 257 257 256 257 257 257 257 257 257 257 257 258 259 260 261 262 263 264 264 264 264 265 266 267 268 270 272 275 278 282 286 289 288 289 289 289 290 290 291
280 283 282 282 282 281 278 279 280 280 279 280 279 278 276 274 271 271 270 269 269 266 265 264 264 264 263 262 262 261 260 260 260 260 260 260 260 259 258 258 257 257 257 257 257 257 257 257 256 256 255 256 256 256 256 257 257 256 257 258 259 260 261 262 263 263 263 263 263 264 264 265 266 268 270 271 272 275 279 283 288 288 288 289 288 289 291
283 282 279 279 280 278 277 277 276 276 277 278 276 273 272 271 269 268 268 267 265 264 263 263 263 263 263 261 260 260 259 258 259 259 259 258 258 258 257 257 257 257 257 257 257 256 256 256 255 255 254 255 255 256 256 256 256 256 257 258 259 260 261 262 262 262 262 262 262 263 264 264 265 266 267 268 269 269 271 273 275 276 278 278 279 281 285
284 282 279 278 278 278 278 278 279 277 276 276 274 272 270 269 267 267 266 265 264 263 263 263 262 262 260 260 259 258 258 258 258 258 258 258 257 257 257 257 257 257 256 256 256 256 256 255 254 254 254 255 255 255 255 256 256 256 257 258 259 261 262 263 262 261 261 262 262 262 263 263 263 264 264 265 266 266 266 267 267 268 268 270 274 277 278
283 283 282 279 278 280 279 279 278 276 275 273 272 270 268 267 264 262 261 261 261 261 262 261 259 258 258 259 258 257 257 256 256 257 257 257 257 257 257 257 256 256 256 256 255 255 255 254 254 253 253 255 255 255 255 255 255 256 257 258 259 260 261 262 261 261 261 261 261 262 262 261 262 263 263 263 263 263 263 264 264 265 266 266 268 272 274
282 282 283 283 282 277 274 274 273 272 271 272 271 268 265 262 261 261 261 262 263 261 261 260 260 258 258 257 257 256 255 255 255 256 255 256 257 257 256 256 255 255 255 255 255 254 254 253 253 253 253 254 254 255 255 255 255 256 257 257 258 259 260 261 261 261 260 261 261 261 262 261 261 261 261 261 262 261 261 261 262 263 264 264 265 265 268
282 283 282 281 275 274 274 272 272 270 270 269 267 264 264 263 262 263 264 264 263 261 262 261 259 258 258 256 256 255 254 254 254 254 255 256 256 256 255 255 255 255 255 254 253 253 253 253 252 252 253 254 254 254 255 255 255 256 256 257 258 258 259 261 261 260 260 260 260 261 260 260 260 260 260 259 259 259 259 259 260 259 260 263 264 262 261
282 280 279 277 274 274 275 274 271 269 268 267 266 264 264 264 264 264 264 265 263 262 262 260 259 258 257 256 255 255 255 254 255 255 255 256 255 255 254 254 253 252 251 252 253 253 252 252 252 252 253 254 254 254 254 254 255 256 256 256 257 259 260 261 262 260 259 259 259 259 259 259 258 258 258 258 258 258 258 258 257 257 258 260 261 261 261
273 270 270 271 271 271 271 271 270 268 267 266 265 264 263 262 262 264 264 263 262 262 260 259 257 256 256 256 255 255 254 254 254 254 255 255 254 254 253 253 253 253 252 252 253 253 252 252 251 252 253 253 254 254 254 254 255 255 255 256 256 257 258 260 259 259 259 259 259 258 258 258 257 258 257 257 257 257 257 256 256 256 256 256 258 261 262
272 268 269 268 266 266 267 269 269 268 266 265 265 266 265 265 264 264 264 262 261 260 258 257 257 256 255 254 254 254 253 253 253 254 254 253 253 253 253 254 253 252 251 252 253 253 252 251 251 253 253 253 254 254 254 254 254 254 255 255 255 256 257 259 258 258 258 258 258 257 257 257 257 257 257 257 257 257 256 256 256 256 256 256 256 258 262
277 277 278 276 272 270 269 268 269 269 268 267 267 266 264 264 263 263 261 260 259 258 257 256 255 254 254 253 253 253 252 253 254 254 253 252 252 252 253 253 252 251 252 253 254 253 252 252 252 252 253 253 254 254 253 254 254 254 254 255 255 255 255 256 256 256 256 256 257 257 257 257 256 256 256 256 256 256 256 255 255 255 255 255 255 256 261
282 281 281 280 278 276 276 275 271 269 268 266 265 264 264 263 262 261 260 258 258 257 256 255 254 253 253 253 252 252 252 251 251 252 252 252 252 252 252 252 251 251 252 253 253 252 252 252 252 252 253 253 254 253 253 253 254 254 254 254 255 255 255 255 255 255 255 255 256 256 256 255 256 256 256 256 255 255 255 255 255 255 254 254 255 255 256
281 280 280 279 277 276 276 275 274 271 269 268 266 264 263 262 260 258 257 258 257 256 255 254 253 253 252 252 252 252 251 252 251 251 252 251 251 252 252 251 251 250 250 252 253 251 252 252 253 253 253 253 253 253 253 253 253 254 254 254 254 254 255 254 254 254 255 255 255 255 255 255 255 255 255 255 255 255 254 254 254 254 254 254 254 254 254
281 280 279 278 274 271 272 273 272 270 269 268 265 262 261 260 259 258 257 256 255 255 254 253 252 252 252 252 252 252 252 251 252 251 251 251 251 251 251 251 250 249 250 250 251 251 252 252 252 252 253 253 252 252 253 254 253 254 254 254 253 254 253 253 253 253 253 254 254 254 254 254 254 254 254 254 254 254 254 253 254 254 254 254 254 254 253
279 278 278 274 268 266 265 263 265 267 265 263 262 261 260 258 257 256 255 254 254 253 253 253 252 253 252 252 252 251 251 251 250 250 251 250 250 249 250 250 249 249 249 249 250 251 252 252 252 252 252 252 252 252 252 253 254 253 253 253 253 253 253 253 252 253 252 252 253 253 253 253 253 253 253 253 253 253 253 253 253 253 253 253 253 253 253
269 265 265 263 263 262 259 260 261 262 263 261 259 258 257 257 256 255 254 253 253 253 252 252 252 252 251 251 252 251 251 250 251 250 250 248 249 249 249 249 249 249 249 250 250 251 252 252 251 251 252 252 252 252 252 253 253 253 253 253 252 252 252 252 252 252 252 252 252 252 252 252 253 252 252 252 252 252 252 252 252 252 252 252 252 252 253
270 266 264 262 262 260 260 259 259 259 259 260 258 256 255 255 254 254 253 252 252 253 252 252 251 252 251 251 250 250 251 250 250 250 250 249 249 249 251 252 251 251 251 251 251 252 252 252 251 251 252 251 252 252 252 252 253 253 253 252 252 252 252 252 252 251 251 251 251 251 251 251 252 252 252 252 251 251 251 252 252 251 251 252 252 252 252
267 263 261 262 260 260 259 258 257 256 256 256 256 255 255 254 254 253 252 251 252 252 252 252 252 251 249 249 250 250 250 251 251 250 250 249 250 251 252 252 252 251 251 251 251 251 251 251 251 251 251 251 251 251 250 251 252 252 252 252 252 252 251 251 251 251 251 250 250 250 250 251 251 251 251 251 251 251 251 251 251 251 251 251 251 251 251
262 261 261 260 258 258 258 256 254 254 254 254 254 254 254 254 253 252 252 252 251 251 251 251 252 250 250 250 250 250 250 251 250 250 250 251 250 250 251 251 251 251 251 251 251 251 251 251 251 251 250 250 250 250 250 252 252 252 252 251 251 251 251 250 250 250 251 251 250 250 250 250 250 250 251 251 250 251 251 250 250 250 250 250 250 250 251
260 260 259 258 258 257 255 254 252 252 252 253 253 253 254 254 253 252 252 252 251 250 250 251 251 251 251 250 250 250 250 251 250 250 250 251 250 251 249 250 251 251 251 250 251 251 251 251 251 251 250 249 250 249 250 251 252 252 251 251 251 251 251 250 250 250 250 250 249 250 249 249 249 249 249 249 250 250 250 250 249 249 250 250 250 250 250
260 260 259 258 257 256 254 253 252 252 251 252 253 253 253 253 252 252 252 252 251 251 250 251 250 250 250 250 250 252 252 251 251 252 252 252 250 251 250 250 250 250 250 250 250 250 251 251 250 250 249 249 249 249 250 251 251 251 251 250 250 250 250 250 249 249 249 249 249 249 249 249 249 249 249 249 249 249 250 250 250 249 249 249 249 249 249
259 259 259 258 256 255 254 253 252 253 253 253 253 253 253 252 252 252 252 252 251 251 251 251 250 250 250 250 250 252 253 253 252 252 252 253 253 253 250 250 250 250 250 249 249 250 251 251 250 249 249 248 249 249 250 251 250 250 250 250 250 250 250 250 249 249 249 249 249 249 249 249 249 249 249 249 249 249 249 249 249 249 249 249 249 248 248
259 258 257 256 255 255 254 254 254 253 253 252 252 253 253 252 252 253 253 252 251 252 252 252 252 252 252 252 252 251 250 251 251 251 252 252 252 251 251 250 250 249 249 249 250 250 250 250 249 248 248 248 248 249 249 249 250 250 249 249 249 249 249 249 248 248 248 248 248 248 248 248 248 248 248 248 249 249 249 249 249 249 249 249 249 249 248
258 257 256 255 255 255 254 254 253 253 253 252 252 252 253 253 253 253 253 252 252 252 253 253 253 253 253 252 251 251 251 251 251 252 251 252 251 250 250 249 249 249 249 248 249 249 249 248 248 247 247 247 247 248 248 248 249 249 249 249 249 250 249 248 248 248 248 248 248 248 248 248 248 248 248 248 248 248 248 248 247 248 248 248 248 248 248
256 255 255 255 254 254 254 253 253 252 252 253 254 254 253 253 253 253 252 252 252 252 252 252 252 251 251 250 250 250 251 253 252 252 252 251 251 250 250 250 249 248 248 248 249 249 249 248 247 247 247 247 248 248 248 248 248 248 248 248 248 248 248 248 248 247 247 247 247 247 247 247 247 247 247 247 247 248 247 247 247 247 247 247 247 247 247
256 256 255 255 254 254 253 253 253 253 254 255 255 254 253 252 252 251 251 251 251 251 251 251 250 250 250 249 249 250 251 250 252 252 252 251 250 250 249 249 249 248 248 248 248 248 248 248 247 246 246 247 248 248 248 248 248 248 248 248 247 248 248 247 247 246 246 246 247 246 246 246 246 246 246 246 246 246 246 246 247 246 246 246 246 246 246
256 255 255 254 254 254 254 254 255 255 256 255 255 254 253 253 252 252 252 251 251 252 252 252 251 251 251 251 251 250 250 249 249 249 249 248 248 247 248 248 247 248 247 247 247 247 248 247 247 247 246 246 247 247 246 247 248 248 247 247 247 247 248 247 247 247 246 246 246 246 246 246 245 245 245 246 245 245 245 246 246 246 246 246 245 245 245
256 256 256 256 256 256 256 256 257 257 256 256 255 254 253 254 253 253 252 252 252 251 252 252 252 252 252 252 252 251 250 249 249 249 248 249 248 248 248 247 247 247 247 247 246 247 248 248 247 247 246 246 247 247 247 247 246 247 247 247 247 247 247 247 246 246 245 245 245 245 245 245 245 244 245 245 245 244 245 245 244 244 245 245 244 244 245
257 257 257 257 256 256 257 257 258 258 257 256 254 254 254 254 253 253 252 252 252 252 252 251 251 252 253 252 252 252 252 251 251 250 250 249 248 248 248 248 247 247 247 247 248 247 247 247 247 246 246 246 246 246 246 246 247 247 246 246 247 246 246 246 246 245 245 245 245 244 244 244 244 244 244 244 244 244 244 244 244 244 244 244 244 244 244
Wind_Speed
13 11 11 5 6 8 9 12 13 16 15 12 15 17 17 10 13 19 10 12 14 16 16 15 15 15 12 11 13 14 16 17 20 21 21 21 20 20 22 22 21 21 22 21 22 21 22 26 24 27 29 27 24 23 24 24 23 23 21 22 23 21 20 20 20 20 20 19 18 20 20 20 19 19 19 17 17 16 16 17 13 11 9 9 9 9 8
12 10 10 7 10 10 13 14 14 16 16 16 20 21 20 21 20 20 18 20 23 18 19 16 16 11 8 9 10 13 16 19 20 20 20 20 20 20 22 22 21 20 22 23 23 25 24 23 22 22 23 24 25 27 27 25 23 21 21 22 21 22 23 22 21 21 21 21 20 20 20 20 20 20 18 17 17 16 16 17 16 14 12 10 10 10 10
9 9 8 10 10 12 18 18 17 17 15 18 20 18 20 20 23 23 24 25 23 18 18 16 11 6 8 9 12 15 16 18 20 20 20 20 20 21 21 21 21 21 23 23 24 23 23 25 25 25 29 29 28 25 23 24 23 20 22 23 23 23 23 23 22 22 21 21 21 22 20 20 19 20 20 17 16 17 16 16 18 18 17 15 12 10 10
8 4 9 11 12 15 19 22 17 16 18 20 19 19 17 19 20 21 20 17 16 14 12 9 9 9 9 11 12 13 14 18 19 19 19 19 20 21 21 21 20 22 23 24 24 24 24 25 25 23 24 27 27 26 25 23 24 24 21 22 24 23 22 23 22 21 20 21 22 21 21 20 19 18 17 16 16 16 16 16 17 16 17 16 14 12 11
8 2 3 2 7 12 16 22 19 21 22 21 16 15 15 19 18 16 14 16 12 11 9 11 11 10 10 10 11 12 14 16 18 18 17 18 19 20 20 21 21 21 22 23 23 22 22 21 22 27 28 27 26 25 26 24 23 21 21 24 22 23 23 23 22 21 20 21 21 21 21 20 18 17 17 17 17 17 17 16 16 17 18 16 15 13 12
1 5 3 0 5 13 13 6 15 21 24 22 21 18 17 16 16 14 13 12 11 12 12 12 12 10 9 9 10 11 13 14 15 15 16 18 19 19 19 20 20 20 20 20 21 22 22 22 22 25 26 26 26 25 24 25 24 24 24 23 23 23 22 21 21 21 21 20 21 21 20 19 19 18 18 18 17 16 16 16 16 17 18 17 15 14 13
3 4 2 4 12 14 6 3 7 15 16 16 16 15 14 14 16 17 17 16 16 15 12 11 10 11 11 9 11 15 15 13 11 12 16 17 18 19 20 20 20 21 22 23 23 23 22 22 22 23 26 27 26 24 23 22 22 25 23 21 21 21 22 21 21 20 21 20 21 20 19 20 20 19 17 16 16 15 15 16 16 16 16 16 14 14 14
2 3 6 5 8 5 2 3 4 3 3 5 6 12 13 13 14 15 15 16 15 13 10 9 10 11 11 11 11 15 13 6 7 12 14 16 17 19 19 20 20 21 22 22 22 22 21 21 21 21 24 27 25 25 24 23 22 21 23 24 22 20 21 20 20 20 20 20 20 20 19 18 19 21 18 16 15 15 15 16 15 15 15 14 14 14 13
7 7 10 15 11 19 17 7 8 11 9 8 9 8 9 11 14 14 13 14 12 9 8 8 10 11 11 10 9 8 2 7 9 12 13 14 15 17 19 19 20 19 20 21 21 21 21 20 21 22 22 21 25 25 23 22 22 22 20 20 22 22 20 21 21 20 20 20 20 20 20 20 19 20 20 16 15 14 15 16 16 15 14 13 12 12 13
4 5 8 9 9 16 7 8 12 12 10 5 2 5 9 5 10 11 12 13 9 8 8 8 8 9 10 9 7 5 7 9 11 11 12 12 13 15 17 18 18 19 19 20 20 20 23 23 22 21 23 26 25 23 22 22 22 22 21 21 21 21 21 21 21 21 20 20 20 20 19 20 20 19 18 17 15 14 15 15 16 14 12 12 11 11 12
6 7 9 10 9 9 2 5 8 8 10 10 6 2 13 8 15 14 10 9 7 7 7 7 5 5 8 10 8 8 11 12 10 12 13 13 14 15 16 17 19 20 20 21 21 21 21 22 22 23 25 25 24 23 23 22 22 23 23 21 21 22 23 22 22 21 20 20 20 20 20 20 19 19 18 17 15 14 14 15 16 13 11 11 10 9 10
12 7 9 14 7 7 3 4 9 10 9 8 3 4 6 8 9 10 10 8 6 7 6 4 4 5 8 11 11 12 13 13 12 12 15 16 17 18 19 18 17 19 20 21 22 23 23 23 22 24 25 23 24 23 22 21 22 24 24 24 22 22 23 23 22 20 19 20 21 20 20 20 18 18 17 17 15 13 12 13 14 14 11 10 10 9 8
13 15 13 10 11 8 8 7 10 11 8 7 3 12 2 6 9 10 8 8 8 6 6 5 5 7 8 11 13 13 14 15 14 13 13 14 14 16 18 18 20 18 19 19 20 22 20 22 21 22 23 22 22 22 22 22 23 23 23 23 23 23 22 21 22 22 20 19 21 21 20 18 18 17 16 16 13 12 13 14 16 12 7 6 7 8 8
14 13 13 13 12 8 8 8 15 12 7 6 12 4 6 11 8 9 9 9 7 7 8 6 7 8 9 11 11 12 13 12 14 14 16 17 16 15 14 14 14 15 17 18 20 22 21 20 19 19 21 22 23 23 23 23 26 25 24 23 22 22 23 23 22 22 21 20 19 17 18 16 16 17 17 16 13 12 12 13 10 6 6 6 6 8 9
8 10 12 7 11 3 18 13 8 11 7 11 6 5 5 6 6 8 8 7 6 6 6 6 7 9 10 10 10 11 11 11 12 14 15 17 17 18 19 19 17 17 18 19 20 22 21 19 17 17 20 23 21 21 23 25 23 24 24 24 22 22 22 23 21 21 20 20 18 14 15 15 16 18 16 12 12 12 13 12 10 8 7 6 6 8 9
8 13 13 11 4 8 12 16 9 9 15 8 4 4 6 6 6 5 3 5 5 6 4 4 6 8 9 9 9 10 9 9 11 12 13 14 15 16 15 13 15 16 18 18 20 20 20 18 18 19 21 21 21 24 25 23 23 23 23 23 23 22 20 20 20 18 18 18 16 13 14 15 16 17 14 11 11 11 11 10 9 7 6 5 6 7 8
11 10 10 3 4 7 10 13 8 11 15 9 5 4 4 4 4 3 3 4 5 5 4 3 5 7 7 8 8 9 9 9 10 12 13 14 15 16 16 17 17 15 16 20 22 24 22 21 19 17 17 20 24 25 24 23 23 23 23 24 24 22 20 18 18 17 16 14 13 13 13 13 13 11 11 11 11 11 10 9 8 7 6 5 6 7 7
10 12 8 3 4 8 9 9 4 2 6 3 4 5 4 4 4 5 4 4 5 5 3 3 4 7 7 7 8 7 8 9 10 10 12 12 13 14 14 14 15 16 17 18 18 21 24 21 19 16 17 18 23 24 24 23 23 23 23 24 23 23 21 18 17 16 17 17 16 14 13 10 10 11 10 10 9 9 7 8 7 7 6 5 6 6 6
7 9 9 12 11 8 8 10 7 3 2 4 3 4 4 4 6 5 4 5 5 6 5 5 6 7 6 6 7 7 6 8 9 11 12 13 12 13 16 16 17 16 17 18 20 22 23 22 19 18 18 18 19 21 22 22 23 23 23 22 22 21 19 17 17 17 18 16 17 17 14 12 9 9 8 8 8 9 9 9 8 7 7 6 6 5 5
14 7 1 6 10 11 9 9 8 9 7 5 5 4 3 5 5 5 6 6 4 5 4 6 6 6 4 5 6 6 6 7 8 9 10 13 14 12 11 14 15 16 16 17 20 22 21 21 19 19 18 19 19 21 21 22 23 24 22 20 20 20 19 16 16 17 17 23 21 15 16 15 14 11 9 8 9 9 9 8 7 7 7 6 6 5 4
12 11 12 12 3 3 7 9 11 8 7 8 8 7 7 7 7 6 6 4 5 6 5 4 3 4 5 4 5 6 6 7 7 9 10 12 13 14 15 14 14 14 17 19 20 20 21 19 19 19 19 19 19 20 20 21 23 23 21 23 21 19 18 16 15 16 16 17 16 16 16 16 14 13 12 10 10 10 9 8 8 8 7 6 5 5 5
10 11 12 11 8 7 9 12 12 11 7 8 8 7 7 7 8 8 7 6 4 4 3 3 3 5 4 4 4 5 6 6 8 10 11 12 13 14 13 12 14 15 16 17 19 20 19 18 18 18 19 19 19 18 19 20 22 22 23 20 18 17 16 15 15 17 16 16 17 16 16 15 16 16 19 21 14 11 10 12 16 16 12 7 5 4 4
9 11 12 10 9 8 7 5 7 7 7 8 9 9 10 9 8 9 8 7 5 5 4 4 4 5 5 5 3 5 6 6 6 8 11 12 13 14 14 15 14 15 16 17 17 19 18 18 18 18 18 18 19 19 20 20 20 20 21 17 16 15 16 15 18 18 16 16 16 16 15 15 14 14 14 15 19 18 17 17 15 14 13 15 13 7 3
9 10 7 6 5 7 2 3 6 5 6 8 9 7 6 8 7 7 5 4 5 4 5 4 4 5 5 3 3 5 7 7 8 9 9 11 11 12 12 12 15 17 17 17 17 19 18 18 18 18 18 17 18 19 19 19 20 19 19 16 15 15 15 15 18 18 15 15 16 15 15 14 14 14 13 14 15 18 21 13 15 15 13 11 12 10 9
10 5 2 3 2 3 5 3 3 4 5 7 7 8 8 7 6 6 6 4 2 5 5 4 4 4 4 3 3 4 6 7 7 9 11 10 10 11 11 13 14 14 15 15 15 16 16 18 19 19 17 17 17 19 20 19 19 19 18 16 16 15 14 17 17 18 16 15 15 15 15 16 15 14 13 13 13 14 16 22 15 9 8 9 10 9 10
12 3 5 4 3 5 4 4 1 4 6 6 4 3 6 7 8 6 5 5 4 4 5 4 4 3 2 2 2 3 5 7 8 9 8 8 9 9 10 12 13 13 14 14 15 15 16 18 19 17 16 17 19 19 19 18 18 17 16 16 16 13 15 18 17 16 16 15 15 15 15 15 14 13 13 13 13 13 12 13 14 17 22 25 28 29 19
10 5 7 1 2 5 7 9 6 9 8 6 7 8 8 9 8 6 6 5 4 5 5 4 3 3 1 1 2 3 5 7 8 7 6 8 9 9 9 10 12 14 15 14 13 15 18 17 17 15 17 17 19 18 19 18 17 16 16 17 14 16 25 22 15 15 15 15 15 15 16 16 14 15 14 14 13 13 13 12 11 12 11 14 20 28 19
8 6 8 8 10 9 7 8 4 8 9 9 9 10 9 8 7 7 6 5 5 5 4 4 3 3 2 2 1 3 4 5 6 6 7 7 7 8 9 11 12 12 12 12 13 14 15 15 14 16 17 18 19 18 20 19 16 15 15 16 15 13 15 18 17 15 15 15 14 14 15 15 14 13 14 13 14 12 12 12 13 12 12 12 10 14 30
11 11 10 10 6 4 7 7 6 8 8 7 8 8 10 10 6 6 6 7 7 6 5 6 5 4 3 2 0 2 4 5 6 7 7 7 8 8 9 10 11 11 10 11 12 13 14 14 13 15 14 19 19 19 20 20 14 14 15 15 14 13 14 16 15 14 14 14 14 15 15 15 14 14 14 14 13 13 13 14 14 11 12 14 15 17 21
11 9 8 6 7 7 8 5 7 7 9 10 10 7 8 9 8 7 8 8 7 7 7 7 6 5 4 2 2 3 4 6 6 6 7 7 7 8 8 9 10 8 8 9 13 14 13 13 13 13 15 18 17 18 20 17 14 15 15 16 14 14 14 17 15 15 14 14 16 19 15 14 13 13 14 14 14 13 14 14 15 14 14 15 16 16 17
7 3 5 6 6 5 8 7 7 8 9 9 10 10 9 7 7 7 9 9 7 7 7 8 7 6 4 3 2 3 4 6 7 7 6 6 7 7 8 9 8 9 9 11 12 13 13 14 12 12 15 16 15 17 18 15 14 14 13 13 13 19 25 28 20 15 12 14 15 15 15 15 14 15 15 14 15 15 15 14 14 15 14 12 15 17 17
6 4 5 3 4 5 5 4 6 8 10 10 10 11 13 14 15 14 10 9 9 9 9 8 7 6 4 3 2 4 5 6 6 6 6 5 6 6 7 7 7 8 9 10 10 11 12 13 13 14 15 15 14 15 15 14 14 13 13 13 13 13 17 27 16 17 14 13 13 14 14 15 14 14 14 15 15 15 14 15 17 15 13 14 13 17 18
8 3 1 3 2 3 7 7 10 11 11 13 13 10 8 6 5 8 9 9 8 6 7 6 5 5 4 3 3 4 4 5 6 6 4 5 6 6 6 6 6 8 8 8 9 9 10 11 13 13 15 16 13 14 14 14 14 12 12 12 11 12 14 16 19 14 13 13 13 13 12 13 13 14 14 15 14 14 13 15 14 14 15 14 13 10 19
14 14 15 15 17 15 15 16 13 12 9 5 5 7 8 8 10 9 9 8 8 7 7 6 6 6 5 4 3 3 3 3 2 2 4 6 7 7 7 5 5 7 8 7 6 7 8 9 11 12 14 13 12 13 13 13 13 11 12 12 12 12 13 13 15 13 12 13 13 13 12 13 13 13 13 13 13 13 14 13 14 13 13 12 13 10 20
15 14 13 9 9 12 12 12 13 14 14 14 10 10 10 10 10 11 11 10 10 7 7 7 7 6 5 4 4 4 3 3 3 4 5 5 6 7 7 7 7 7 7 5 4 7 8 8 10 14 15 12 11 13 12 13 13 11 12 11 11 11 11 13 13 13 13 12 12 12 13 13 13 12 13 13 13 13 13 13 13 13 12 13 12 12 15
14 12 10 8 8 9 10 9 9 13 15 16 15 14 13 13 13 12 14 10 7 8 8 8 7 6 5 5 5 4 3 2 3 3 4 5 5 6 6 7 8 9 8 6 4 7 10 9 16 22 14 11 11 13 13 15 13 11 10 11 10 10 10 11 11 11 12 11 12 12 12 13 13 13 14 12 12 13 12 12 13 12 12 11 11 12 12
12 13 12 9 6 5 7 7 8 11 12 12 12 12 12 13 15 10 10 9 7 8 8 8 7 7 6 5 4 3 2 2 2 2 3 4 5 5 6 5 6 6 7 7 9 11 10 9 17 22 12 9 10 12 13 23 13 11 9 10 10 10 11 10 11 11 12 11 12 12 13 12 11 12 14 13 13 12 12 12 13 12 12 11 12 12 13
9 11 10 8 8 7 6 4 4 8 9 9 7 9 15 14 12 13 12 8 7 8 8 7 7 6 5 5 4 3 2 1 1 2 3 4 4 5 4 2 4 4 5 4 9 10 8 12 19 13 9 9 10 10 14 22 22 12 9 10 10 10 11 10 11 11 11 11 12 11 11 12 12 12 12 12 12 12 13 13 13 13 12 13 12 13 13
4 3 4 5 7 7 7 4 4 7 13 16 12 11 10 12 13 14 12 9 8 8 8 8 7 6 5 5 4 4 3 2 1 1 2 3 2 2 2 1 0 2 4 7 8 8 9 12 12 10 9 9 11 10 13 18 21 10 9 9 10 9 9 9 10 10 10 11 10 12 11 12 11 11 11 11 11 12 12 14 13 12 12 12 12 12 12
7 8 9 9 9 9 9 8 6 7 5 11 18 17 14 16 12 12 9 9 8 9 8 8 8 6 6 5 4 4 4 3 2 1 2 2 2 3 2 3 3 2 4 8 7 7 10 14 10 7 8 9 9 9 10 15 15 9 9 9 9 9 9 10 9 9 10 10 10 12 11 11 10 11 10 10 10 11 11 11 12 12 11 11 11 11 11
9 8 8 9 10 10 11 11 9 7 8 8 8 11 10 13 11 12 12 10 9 8 7 7 7 5 7 6 5 4 3 2 2 2 2 2 2 1 0 0 2 2 4 6 7 7 8 7 7 7 7 9 8 11 10 13 10 8 8 8 8 8 9 10 9 9 9 10 10 10 10 9 10 11 11 10 10 9 9 9 10 10 10 10 10 10 10
7 9 10 10 12 11 10 11 12 11 8 8 10 12 14 9 9 12 11 10 9 8 8 5 5 6 6 5 4 3 2 2 2 2 2 2 0 0 1 0 2 2 7 8 7 7 5 5 6 6 8 10 8 15 17 9 7 7 7 8 7 8 8 8 8 9 9 8 8 8 8 9 9 9 9 9 10 9 9 9 9 10 10 9 9 9 10
12 14 13 13 14 12 13 14 16 14 12 10 11 11 10 8 9 9 10 9 9 9 8 7 7 7 6 5 4 3 2 2 2 2 2 3 2 1 1 2 4 3 8 6 6 4 4 4 5 4 11 11 10 16 14 6 6 6 6 7 8 7 7 7 7 7 8 8 8 8 8 9 9 9 9 9 9 9 9 10 10 10 9 9 9 9 8
11 11 12 13 12 11 13 15 16 17 17 11 9 9 9 10 9 10 11 10 10 9 8 8 7 6 5 5 4 3 3 3 2 2 1 1 1 4 3 2 3 5 7 5 5 4 3 3 3 9 13 15 15 16 8 5 5 5 5 6 6 7 7 7 7 7 7 8 7 8 8 8 8 8 9 9 9 8 9 9 9 9 9 9 8 8 8
12 12 12 13 13 13 9 10 14 14 11 11 10 8 8 8 8 8 9 9 9 8 7 7 7 6 5 5 3 2 2 2 2 2 1 1 1 0 2 2 3 4 5 8 5 4 3 3 7 12 11 14 15 14 6 5 5 5 5 5 5 5 5 6 7 6 6 6 6 7 7 7 7 7 7 7 8 7 8 9 9 8 8 9 9 9 9
11 10 11 12 14 13 10 8 8 9 11 11 10 8 6 6 7 6 6 7 8 6 6 6 7 5 5 4 3 2 1 1 1 1 1 0 0 1 2 3 3 4 8 9 4 4 2 6 9 10 12 12 13 7 4 4 4 4 4 4 4 5 5 5 5 6 6 6 6 6 5 6 6 6 6 6 7 7 7 8 7 7 7 8 8 8 8
12 11 12 12 12 13 13 9 10 12 11 10 10 9 8 7 8 7 6 6 6 7 5 4 4 3 4 3 3 3 3 3 2 2 2 1 0 1 2 3 5 6 6 4 4 3 4 5 7 10 11 11 10 4 3 4 4 3 4 4 4 4 4 4 5 4 5 5 6 6 6 5 5 5 6 6 6 6 6 7 7 7 7 7 6 8 8
12 14 13 13 14 13 11 9 10 10 9 8 8 9 9 9 7 6 6 6 6 5 4 3 4 3 3 2 0 0 1 1 2 2 3 2 1 1 1 1 2 6 8 7 7 6 7 8 9 10 9 9 5 2 3 3 3 3 3 4 4 4 4 3 3 4 5 5 5 6 5 5 5 5 5 5 6 6 6 5 6 6 6 6 7 7 7
12 14 12 12 12 11 10 11 12 9 7 7 8 8 9 9 8 7 6 6 7 5 4 4 4 3 2 2 1 1 1 1 1 1 2 1 0 1 1 2 4 6 6 4 5 4 5 7 8 9 9 6 2 2 2 2 3 4 3 4 4 3 4 3 3 3 3 4 4 4 4 4 4 5 4 5 5 5 5 5 5 5 5 6 6 6 5
11 10 10 10 11 11 10 9 8 7 7 8 7 8 8 8 8 6 6 6 5 5 4 4 3 3 3 3 3 2 1 1 0 0 0 0 1 2 1 1 2 5 6 5 4 5 5 7 6 5 4 2 2 2 2 2 2 2 3 4 4 3 4 5 6 6 3 3 2 2 3 4 4 4 5 3 4 4 5 5 5 6 10 7 5 5 5
9 9 9 9 8 7 7 4 5 8 8 8 8 8 9 6 6 6 6 7 6 5 4 4 3 4 4 4 3 2 2 2 2 2 1 1 1 1 2 2 2 3 4 4 4 4 4 3 3 3 4 3 3 2 1 1 2 2 2 2 3 3 4 5 4 4 4 4 3 2 2 2 2 3 4 3 3 4 4 4 4 4 4 4 4 4 5
8 7 8 8 8 8 6 5 6 6 6 7 8 8 7 7 7 6 5 7 5 5 5 5 4 3 4 3 3 2 2 2 2 2 2 1 0 1 2 3 3 3 3 3 3 3 4 3 4 4 4 3 3 2 3 4 2 2 2 2 3 3 3 4 4 4 5 6 6 5 3 2 2 3 3 2 3 3 3 3 4 4 4 3 4 4 4
Wind_Direction
260 266 271 234 223 237 237 240 239 231 215 205 211 224 227 204 222 249 269 271 269 275 275 283 296 303 308 313 315 315 318 319 317 318 317 317 315 314 320 323 320 316 314 315 316 317 318 329 328 328 330 330 325 318 315 314 313 309 309 309 307 304 302 298 297 296 295 293 293 294 292 289 287 288 288 286 287 288 287 282 282 282 269 261 258 261 259
260 252 252 260 268 271 264 251 242 239 227 225 222 226 225 223 238 251 267 271 269 274 274 286 293 298 308 309 311 311 317 318 316 316 314 314 312 316 320 319 319 316 312 312 313 319 322 324 324 321 322 324 323 321 317 313 311 309 309 305 302 303 301 299 298 297 296 296 294 291 289 286 286 285 285 285 282 282 281 279 280 282 281 266 258 260 265
260 249 252 260 266 271 268 260 250 243 236 240 239 233 229 233 246 252 257 262 267 266 273 278 283 308 308 307 309 314 316 314 314 312 313 313 315 318 316 316 317 315 312 310 313 317 321 323 322 321 327 327 324 316 314 312 308 307 307 303 302 300 298 298 297 297 296 294 295 291 287 286 283 281 282 281 279 278 277 273 273 271 268 270 263 257 257
275 227 232 250 265 272 272 266 246 239 232 240 236 233 221 222 235 244 251 256 257 264 269 286 300 300 305 309 313 313 314 312 312 311 309 313 318 317 316 315 315 314 313 314 317 319 320 321 321 320 321 323 321 314 311 311 310 307 302 303 300 296 296 296 297 296 295 294 293 291 288 281 278 277 275 273 272 275 276 273 271 268 263 259 263 261 257
278 356 199 303 302 301 275 252 231 227 231 232 238 240 225 222 225 237 240 244 249 268 293 294 288 294 299 305 311 311 305 305 307 307 308 313 316 315 315 313 313 312 312 312 315 318 319 320 318 318 320 319 318 315 311 308 309 304 302 302 300 299 298 297 296 295 294 292 292 292 290 285 277 275 273 272 272 272 268 268 267 262 259 255 255 257 253
91 106 75 354 306 265 250 77 193 208 220 226 234 236 231 225 216 232 238 255 267 275 283 285 292 297 300 314 307 299 297 299 301 302 310 314 314 314 311 311 312 313 312 312 314 317 317 314 314 316 317 317 314 312 310 308 307 306 307 305 303 300 299 297 296 295 294 292 290 289 287 283 276 269 269 269 270 270 269 269 262 259 256 253 250 251 252
241 93 133 292 254 249 31 320 214 214 220 228 236 242 235 231 230 237 248 256 262 273 284 289 293 297 308 314 306 294 287 293 297 309 312 313 316 314 314 314 316 315 314 313 316 318 320 319 317 318 318 321 317 312 310 306 305 303 302 301 301 300 298 296 296 295 293 291 290 291 292 293 286 271 265 267 265 266 267 266 260 253 252 248 245 247 250
344 199 182 229 230 35 301 329 167 97 207 215 241 260 242 233 236 238 247 256 265 272 280 289 297 307 314 310 290 281 283 299 330 318 312 315 315 313 312 313 313 315 315 315 316 316 316 315 315 317 319 321 316 309 307 305 307 308 305 302 301 301 300 298 297 296 294 292 290 290 288 287 288 284 270 264 267 269 267 265 259 252 249 242 239 241 245
197 223 211 236 312 301 258 225 228 202 198 192 205 250 251 214 225 238 246 255 259 264 275 290 303 314 314 298 285 267 12 3 333 317 310 309 308 307 307 309 309 310 311 312 314 315 314 314 313 313 315 316 315 310 310 309 307 306 306 303 302 301 298 297 295 294 293 291 289 288 286 284 282 284 281 270 269 266 262 261 260 251 245 239 239 240 245
173 191 263 272 263 256 284 213 217 209 205 217 240 335 279 208 241 242 242 248 245 261 279 289 305 320 303 293 298 336 0 345 327 316 308 306 305 306 306 308 310 313 316 316 317 318 315 315 315 314 316 318 316 310 305 304 308 310 308 305 303 301 298 296 294 294 291 289 286 284 282 279 278 277 275 272 267 263 261 260 253 244 241 240 235 235 239
214 206 220 231 241 243 109 201 103 115 102 92 86 307 277 214 219 220 212 212 229 259 270 276 303 301 296 294 302 337 340 332 327 316 314 315 313 313 314 317 318 321 321 319 317 314 313 314 317 317 315 315 313 308 309 314 314 309 308 308 307 304 300 296 294 292 289 285 282 280 277 274 273 274 271 268 265 259 254 261 271 265 242 238 237 235 239
222 220 225 243 225 251 303 126 121 115 114 114 133 293 287 112 151 158 171 196 232 242 249 245 243 257 281 296 311 329 328 327 322 323 322 322 323 321 322 322 323 320 319 322 322 321 319 317 317 318 318 313 314 315 311 306 307 310 311 309 307 305 300 298 297 295 291 288 284 280 276 273 270 269 270 267 260 262 269 268 262 251 236 232 234 242 246
225 223 246 278 264 246 182 143 131 123 128 120 193 228 195 140 146 166 176 211 220 218 219 212 249 239 265 291 307 317 318 322 321 323 321 319 321 318 321 323 327 324 323 321 316 312 312 314 318 320 318 316 316 312 308 313 317 316 312 310 307 304 302 299 294 288 283 275 274 273 269 268 269 268 267 265 257 253 257 260 253 243 239 244 250 257 260
219 219 241 244 274 240 174 175 145 137 110 213 225 249 118 163 175 191 189 202 214 204 209 219 246 272 284 293 300 305 313 316 314 316 320 320 319 316 315 317 320 318 316 314 312 310 310 312 312 317 320 315 308 314 320 316 314 314 314 311 308 308 305 301 298 293 288 282 277 273 272 268 265 264 260 253 251 256 260 260 252 245 248 255 262 268 270
220 218 238 261 263 140 177 149 134 172 182 238 228 119 161 158 178 177 190 203 208 193 218 233 265 279 286 295 298 301 308 314 313 317 320 322 322 322 325 327 330 330 322 318 316 309 309 313 313 316 313 307 313 320 315 315 319 317 311 309 311 307 302 297 291 286 283 280 277 271 266 264 263 263 260 253 251 252 258 266 267 259 253 257 262 268 269
174 201 205 212 205 116 160 145 179 198 222 225 194 179 183 166 170 182 201 210 185 187 225 253 270 280 289 290 294 302 306 307 306 308 312 315 316 314 315 318 321 324 316 314 311 309 309 311 313 319 324 321 315 315 317 322 317 316 313 313 307 304 299 295 292 287 284 279 273 266 263 263 263 260 260 262 264 262 258 260 264 258 254 257 260 265 267
180 200 223 192 125 153 168 178 195 201 214 211 163 171 212 181 190 164 191 215 159 159 180 246 269 277 271 282 295 300 302 307 307 310 315 316 316 317 319 323 325 324 319 316 314 310 309 312 317 322 320 313 318 320 322 323 318 319 316 312 312 307 303 297 294 287 281 279 279 271 262 258 262 267 264 260 261 257 255 253 252 254 257 255 258 264 266
243 268 258 39 225 181 193 206 213 223 196 120 143 167 192 226 161 162 200 183 152 141 141 185 259 254 275 287 295 296 299 300 303 306 310 313 315 315 316 317 324 324 319 312 308 305 308 313 314 315 325 329 321 321 323 320 321 318 316 314 310 307 306 303 296 294 302 305 307 301 283 269 267 266 260 261 262 266 264 260 256 257 256 252 252 255 261
176 256 201 206 224 223 199 204 191 113 247 201 164 178 219 186 141 144 132 145 145 147 151 200 248 270 280 289 292 299 298 302 310 315 313 314 318 321 322 323 325 325 324 320 316 314 310 314 318 325 327 323 322 320 319 323 323 319 319 313 310 309 304 302 312 322 324 322 323 321 317 308 292 285 262 247 251 255 257 256 256 255 255 251 251 249 247
221 226 136 210 215 220 208 206 203 202 201 193 195 185 154 127 120 131 133 116 132 146 176 210 234 257 278 288 290 299 302 308 313 313 315 316 318 319 319 319 323 319 317 316 314 313 311 312 320 324 323 327 323 322 322 326 322 322 319 317 315 307 304 313 322 327 327 325 325 324 324 323 316 300 282 265 256 254 253 253 253 252 245 247 246 241 237
240 261 262 260 268 158 209 218 233 224 185 170 168 151 132 136 138 139 139 164 167 174 192 190 221 258 262 268 284 293 300 305 311 316 317 316 314 316 322 327 327 321 318 316 313 310 307 312 319 318 325 325 326 328 330 328 326 325 320 318 314 309 317 325 329 332 330 327 327 325 321 320 317 313 301 285 276 265 254 247 244 247 240 244 238 231 230
224 219 231 233 232 235 220 212 213 215 192 145 150 144 152 169 165 163 161 167 159 164 172 179 201 237 257 264 276 290 297 302 312 316 317 315 315 316 320 322 322 318 314 312 313 313 310 313 316 321 321 324 330 330 334 329 329 328 322 319 319 324 327 330 333 336 335 332 329 326 322 320 320 315 310 304 281 259 266 253 244 239 237 239 233 220 230
218 228 238 232 236 237 222 229 206 181 143 143 156 182 190 184 174 167 162 161 164 170 177 172 190 227 247 266 300 300 298 307 316 315 316 318 318 318 323 324 323 323 317 315 312 310 313 315 319 321 322 326 330 336 331 332 333 326 320 320 324 325 329 335 338 338 336 333 330 326 322 322 319 316 318 319 320 304 263 255 252 246 239 236 240 239 221
239 233 237 232 193 228 241 115 121 133 155 163 190 191 170 162 159 158 161 166 161 167 162 177 194 223 250 276 305 295 299 309 316 314 313 312 311 313 319 322 318 318 320 321 322 321 317 318 320 321 320 325 333 333 332 334 332 325 320 323 327 325 328 335 338 341 338 334 332 328 327 326 324 323 325 330 324 329 329 279 249 249 242 238 238 244 246
229 230 114 161 183 101 85 75 115 141 163 172 178 176 162 144 134 142 145 145 152 153 163 186 204 211 229 266 282 286 297 303 308 307 310 309 310 317 316 316 317 319 319 319 315 313 317 319 320 318 319 325 331 332 335 328 326 326 322 321 322 324 332 341 341 342 342 339 336 334 334 333 332 335 338 339 339 337 343 351 347 337 338 350 342 290 245
237 169 94 74 74 102 123 91 242 184 174 173 122 97 95 110 128 129 137 144 149 157 168 182 192 206 198 233 270 292 297 295 303 310 306 306 311 314 314 315 315 317 314 312 311 314 316 321 321 320 327 332 337 336 331 326 329 318 312 317 326 330 341 346 345 346 344 342 339 341 339 337 336 343 343 346 351 351 353 354 2 12 14 9 10 13 356
232 157 115 92 225 203 180 191 219 170 166 154 129 122 119 119 119 118 122 123 141 157 172 184 181 191 193 256 269 282 278 296 304 298 300 304 308 308 309 311 314 313 311 308 308 316 321 319 320 326 330 334 336 338 339 330 323 318 319 328 333 340 347 352 351 349 342 341 344 347 347 344 343 349 349 353 358 5 7 8 8 11 4 360 4 11 18
224 203 182 213 240 238 211 200 120 131 146 143 137 134 133 122 115 110 124 140 162 166 168 166 169 188 215 219 233 292 301 292 290 297 303 306 307 310 311 315 315 313 308 304 312 317 321 322 319 328 331 339 338 338 341 335 324 323 326 336 338 347 346 351 355 351 345 345 346 353 354 346 348 353 354 1 5 5 4 11 16 11 8 9 359 357 23
224 227 215 222 219 104 83 85 101 122 126 131 126 126 128 124 136 150 177 183 173 167 183 184 181 195 190 207 194 281 285 284 287 295 303 304 309 315 317 319 316 309 304 304 317 319 322 325 325 328 326 343 339 342 342 337 329 330 337 341 341 347 351 351 353 350 351 349 350 357 358 354 352 358 2 7 9 9 14 16 14 9 17 8 4 8 14
212 209 210 194 114 143 133 154 159 152 150 153 144 142 156 143 158 191 187 182 171 179 190 175 176 190 180 178 218 243 265 279 288 291 295 306 313 318 319 322 316 309 317 323 326 330 332 326 328 329 333 333 330 339 342 337 332 331 340 344 339 347 351 354 353 354 359 359 355 357 360 357 357 0 5 8 11 14 18 15 15 13 11 19 27 28 15
204 191 186 135 142 165 190 173 140 155 153 157 157 154 167 178 179 180 189 182 172 183 175 173 181 176 181 184 193 246 270 274 280 283 293 302 314 322 326 331 341 341 333 322 319 333 331 329 328 326 331 330 326 336 343 337 335 336 343 347 342 347 355 360 360 2 358 2 360 1 2 3 4 6 10 11 12 16 17 16 16 16 9 13 28 30 21
116 86 97 132 158 168 186 155 156 168 171 164 160 180 179 176 188 192 181 176 183 175 165 166 174 176 167 148 192 253 260 272 276 280 286 298 311 319 325 328 334 327 313 307 318 329 332 331 327 324 330 330 332 340 341 338 338 342 343 343 343 343 351 358 359 358 1 1 3 7 7 7 7 9 11 16 17 16 14 20 22 18 15 14 16 30 25
146 123 266 219 197 212 219 213 184 187 168 182 196 186 178 190 153 164 169 151 139 154 160 166 155 144 139 153 212 245 259 271 268 260 284 304 308 318 325 331 333 325 314 309 318 328 334 330 322 321 330 331 330 342 342 340 344 341 338 339 343 345 350 354 357 353 356 2 6 7 3 9 5 10 15 14 17 18 21 23 21 20 21 18 12 5 31
184 203 210 203 186 192 203 216 208 206 188 171 170 163 161 166 179 176 166 153 139 149 159 151 139 135 144 173 208 238 262 282 280 302 319 321 321 322 320 325 327 318 301 291 327 340 338 326 324 329 326 321 328 341 340 346 346 338 337 338 345 351 350 347 353 356 355 2 359 360 5 10 11 11 9 10 15 23 25 21 23 22 21 20 15 355 24
205 215 220 220 200 207 203 197 191 197 191 183 188 187 181 175 176 176 155 151 163 149 127 125 132 141 152 173 205 217 227 239 269 291 303 313 317 317 318 322 328 326 309 297 343 348 334 321 335 335 326 326 336 345 342 346 347 337 339 341 344 353 353 353 354 358 358 352 353 359 9 13 12 10 12 17 18 20 22 23 22 20 19 17 11 7 16
208 218 223 222 205 202 205 203 184 183 185 191 189 180 176 179 169 156 155 156 122 126 130 135 136 143 159 184 199 194 208 233 253 280 293 311 314 318 318 329 340 335 326 305 1 349 335 337 340 340 336 336 341 342 344 351 346 345 339 345 346 347 352 356 353 350 355 357 2 5 9 7 11 14 13 12 18 20 19 21 21 21 19 17 10 12 7
204 210 216 211 194 185 196 191 172 168 178 179 168 164 169 170 165 146 111 110 127 129 136 137 140 157 178 181 173 173 193 216 269 308 309 323 321 323 317 331 345 339 330 334 341 339 332 337 339 338 337 346 341 338 338 350 351 340 341 349 350 351 354 354 354 359 354 355 1 1 360 3 12 14 13 15 17 17 19 19 19 17 17 13 13 15 13
200 205 211 195 169 164 161 151 141 142 132 132 149 166 165 157 150 133 129 119 122 133 138 144 149 153 151 155 160 168 185 195 260 288 297 318 324 322 312 359 356 350 343 326 323 324 326 336 339 335 338 346 339 337 339 346 350 346 348 350 351 352 357 354 354 358 358 355 356 358 359 5 10 11 10 12 14 16 19 18 18 19 16 16 17 20 20
135 77 88 108 125 133 127 107 116 140 151 152 150 142 143 141 131 120 124 131 134 139 134 141 142 144 154 160 169 164 176 186 227 289 304 319 297 305 287 328 77 328 280 303 315 316 328 337 338 335 340 338 337 339 341 344 346 346 347 348 350 352 353 355 356 354 358 355 359 3 360 5 9 12 11 9 9 14 16 19 17 14 15 13 14 13 14
175 165 163 146 147 144 132 131 133 136 139 149 149 152 153 136 137 132 127 129 142 145 144 143 150 158 164 170 172 171 166 171 204 255 280 298 291 282 257 195 174 321 301 321 322 322 327 333 337 333 339 337 340 344 341 340 343 345 351 351 350 352 353 353 356 357 355 355 359 360 4 0 4 7 7 7 12 14 10 9 16 13 13 11 13 12 16
175 155 151 154 149 148 145 137 134 130 132 138 140 140 135 133 130 130 146 147 143 145 146 153 155 150 162 168 167 172 161 191 180 228 262 260 254 263 337 300 25 339 334 333 324 319 325 333 340 338 345 340 339 347 341 333 343 350 350 349 352 355 355 354 357 355 357 355 356 360 355 353 359 4 5 8 11 7 7 10 12 13 11 9 8 8 12
158 144 142 141 142 145 135 127 123 123 122 130 134 131 117 126 135 142 141 133 135 138 140 149 155 147 151 162 160 166 178 180 195 226 234 250 258 331 321 335 15 330 335 331 322 323 326 334 339 347 350 342 336 340 337 331 343 345 347 347 347 355 357 354 354 352 351 351 355 353 350 358 358 356 357 3 4 4 4 5 9 13 10 9 11 5 4
148 154 156 142 135 142 143 144 128 120 124 133 142 143 138 115 110 118 126 132 135 140 145 148 146 145 145 149 158 160 179 167 184 219 237 218 216 248 262 291 321 321 332 330 328 322 331 338 342 349 343 340 335 336 332 337 347 349 349 343 348 351 354 357 353 348 351 354 354 354 357 356 355 357 359 358 357 358 1 5 11 7 3 7 8 8 10
149 147 151 151 151 146 144 127 120 116 116 138 142 134 128 130 134 137 139 141 142 148 149 151 152 152 154 156 158 173 170 177 190 184 200 183 193 210 210 281 311 317 326 333 325 321 320 330 342 341 336 337 338 338 332 341 347 350 343 346 344 346 346 350 351 356 359 356 349 355 355 352 354 357 358 356 357 356 1 2 3 0 359 0 358 359 2
155 155 154 152 147 145 143 148 149 148 135 125 128 129 130 134 134 141 139 139 141 144 147 145 151 155 163 166 182 182 159 160 176 161 179 206 231 115 136 296 314 320 326 332 316 314 319 328 336 336 335 335 337 335 335 343 346 344 338 340 346 347 345 349 346 349 349 347 353 354 351 351 352 353 352 352 357 358 2 359 357 358 357 359 358 0 2
145 145 141 139 148 152 136 113 102 103 116 122 119 125 128 127 132 133 136 134 139 142 147 149 155 159 158 156 148 120 125 199 203 226 278 6 347 21 6 340 316 312 317 319 309 314 307 327 330 332 334 334 336 330 337 335 335 335 338 340 338 342 346 343 337 339 338 342 350 345 349 349 347 344 349 346 350 354 350 351 349 356 358 359 356 359 354
139 139 147 146 138 128 133 116 116 126 126 131 139 149 154 147 145 147 142 131 125 122 133 136 136 130 134 139 157 163 171 169 185 194 204 210 148 227 284 293 288 299 311 309 306 302 309 318 322 329 329 331 328 321 322 323 328 331 334 336 336 345 343 339 337 335 336 340 337 332 335 346 344 345 345 344 349 355 349 355 359 351 348 349 350 354 351
143 140 145 148 141 138 129 128 138 147 156 154 145 134 140 144 143 111 119 128 121 116 116 110 108 101 101 113 176 315 315 192 171 175 164 172 212 251 264 283 316 313 305 293 286 287 294 300 312 320 325 328 318 316 320 323 327 332 332 334 337 333 335 342 336 337 334 330 329 344 343 340 342 346 349 350 343 343 350 345 343 342 346 348 347 346 340
140 139 136 133 127 137 140 146 151 148 149 139 126 129 133 128 115 118 127 126 125 123 122 118 112 122 130 163 189 212 210 295 319 115 111 143 206 272 276 294 294 295 294 284 290 292 290 296 307 314 319 317 313 321 314 326 323 323 324 333 323 321 331 332 327 329 321 315 324 333 329 324 338 343 340 337 336 333 337 337 339 338 344 334 332 332 337
131 129 133 146 152 156 159 156 158 152 141 135 134 133 135 137 139 150 147 148 149 145 139 147 157 168 173 181 190 190 185 212 280 10 314 216 228 234 256 264 277 278 279 282 289 288 288 296 297 304 318 306 287 288 292 299 313 334 329 315 315 321 314 317 317 317 298 305 313 313 322 322 323 325 322 318 327 330 332 326 322 324 330 329 328 328 332
140 143 147 150 148 147 151 142 135 136 143 140 130 131 144 150 137 135 146 148 144 149 153 149 161 168 174 179 176 169 172 187 210 206 226 222 230 252 260 279 279 271 276 279 278 287 295 294 307 319 311 302 291 285 295 317 311 301 299 311 311 303 310 320 320 320 320 321 313 304 307 314 309 314 318 321 323 322 317 319 320 326 329 329 324 325 324
120 123 127 132 135 135 135 123 121 124 116 119 128 143 148 139 129 132 132 155 154 157 157 148 163 176 176 173 162 168 167 179 194 192 208 227 268 277 281 268 265 259 255 261 273 282 283 288 295 287 288 297 296 302 291 284 283 278 275 286 287 292 297 300 304 306 314 319 323 322 319 314 317 311 304 310 314 312 311 310 311 313 311 311 312 313 310